Regional Weather Roundup
Issued by NWS Sioux Falls, SD

Home | Current Version | Previous Version | Graphics & Text | Print | Product List | Glossary On
Versions: 1 2 3 4 5 6 7 8 9 10 11 12 13 14 15 16 17 18 19 20 21 22 23 24 25 26 27 28 29 30 31 32 33 34 35 36 37 38 39 40 41 42 43 44 45 46 47 48 49 50
000
ASUS43 KFSD 231310
RWRFSD

WEATHER ROUNDUP FOR SE SOUTH DAKOTA/SW MINNESOTA/NW IOWA
NATIONAL WEATHER SERVICE SIOUX FALLS SD
800 AM CDT WED APR 23 2014

NOTE: "FAIR" INDICATES FEW OR NO CLOUDS BELOW 12,000 FEET WITH NO
SIGNIFICANT WEATHER AND OR OBSTRUCTIONS TO VISIBILITY.


SDZ038>040-050-052>070-231400-
SOUTHEAST SOUTH DAKOTA

CITY           SKY/WX    TMP DP  RH WIND       PRES   REMARKS
CHAMBERLAIN      N/A     53  34  48 SE32G39   29.60F
HURON          LGT RAIN  52  35  52 SE16G31   29.74R
MADISON        PTSUNNY   46  37  71 SE26G36   29.82F
MITCHELL       PTSUNNY   52  36  54 SE32G43   29.72F
SIOUX FALLS    CLOUDY    49  36  61 SE25G37   29.86R
WINNER         FAIR      56  33  42 SE22G33   29.54F
YANKTON        PTSUNNY   52  36  54 E18G25    29.82S
$$

MNZ071-072-080-081-089-090-097-098-231400-
SOUTHWEST MINNESOTA

CITY           SKY/WX    TMP DP  RH WIND       PRES   REMARKS
FAIRMONT       CLOUDY    45  28  53 SE18      30.05F
JACKSON        CLOUDY    46  30  53 SE15      30.02R
LUVERNE        CLOUDY    46  37  71 SE23G31   29.90S
MARSHALL       CLOUDY    45  34  65 SE20G28   29.93S
MONTEVIDEO     CLOUDY    43  37  81 S13G21    30.00R
PIPESTONE      DRIZZLE   45  37  76 SE20G30   29.88R
REDWOOD FALLS  LGT RAIN  44  36  73 SE14      30.00S
TRACY          RAIN      45  36  69 SE17G28   29.96S
WINDOM         LGT RAIN  46  30  53 SE17G24   29.99F
WORTHINGTON    CLOUDY    45  30  57 SE22G30   29.94F
$$

IAZ001>003-012>014-020>022-031-032-NEZ013-014-SDZ071-231400-
NORTHWEST IOWA

CITY           SKY/WX    TMP DP  RH WIND       PRES   REMARKS
CHEROKEE       CLOUDY    47  38  70 SE18G25   29.94S
DENISON        CLOUDY    50  32  50 SE17G23   29.95S
ESTHERVILLE    CLOUDY    46  32  58 SE17      30.02S
LE MARS        CLOUDY    48  39  71 SE9G16    29.93R
ORANGE CITY    LGT RAIN  48  36  61 SE14G23   29.94R
SHELDON        CLOUDY    46  37  71 SE14G22   29.95R
SIOUX CITY     LGT RAIN  49  39  68 SE20      29.89R
SPENCER        CLOUDY    48  31  51 SE18G28   29.98F
STORM LAKE     CLOUDY    48  32  53 SE24G31   29.97S
$$

ABBREVIATIONS USED IN REMARKS
   TC - TEMPERATURE IN CELSIUS
  WCI - WIND CHILL INDEX
   HX - HEAT INDEX
  VSB - VISIBILITY




USA.gov is the U.S. government's official web portal to all federal, state and local government web resources and services.